This demonstration page uses our WeatherBlox Daily Observations layout. Learn more.

Left ArrowRight Arrow

34.74481, -87.66753

Hourly Observations for January 13, 2022

Temp ( °F °C ) Dew Point ( °F °C ) Humidity (%) Winds ( mph kmh ) Pressure ( in mb ) Visibility ( mi km ) Precip ( " mm )
12:53 am 00:53 Clear 44 6.7 30 -1.1 58 58 S 5 7 30.09 1019 10 16 0.00 0.00
1:53 am 01:53 Clear 43 6.1 30 -1.1 60 60 S 5 7 30.07 1018 10 16 0.00 0.00
2:53 am 02:53 Clear 44 6.7 30 -1.1 58 58 SSW 5 7 30.04 1017 10 16 0.00 0.00
3:53 am 03:53 Clear 44 6.7 32 0 63 63 WSW 9 15 30.01 1016 10 16 0.00 0.00
4:53 am 04:53 Clear 43 6.1 32 0 65 65 WSW 8 13 30.01 1016 10 16 0.00 0.00
5:53 am 05:53 Clear 41 5 31 -0.6 67 67 WSW 7 11 30.01 1016 10 16 0.00 0.00
6:53 am 06:53 Clear 41 5 32 0 70 70 W 6 9 30.02 1017 10 16 0.00 0.00
7:53 am 07:53 Sunny 42 5.6 34 1.1 73 73 W 6 9 30.02 1017 10 16 0.00 0.00
8:53 am 08:53 Sunny 47 8.3 35 1.7 63 63 WSW 8 13 30.01 1016 10 16 0.00 0.00
9:53 am 09:53 Sunny 50 10 35 1.7 57 57 W 10 17 29.98 1015 10 16 0.00 0.00
10:53 am 10:53 Mostly Cloudy 54 12.2 35 1.7 49 49 W 12 19 29.96 1015 10 16 0.00 0.00
11:53 am 11:53 Cloudy 54 12.2 35 1.7 49 49 W 15 24 29.95 1014 10 16 0.00 0.00
12:53 pm 12:53 Cloudy 57 13.9 36 2.2 45 45 WNW 10 17 29.92 1013 10 16 0.00 0.00
1:53 pm 13:53 Partly Cloudy 60 15.6 36 2.2 41 41 WNW 13 20 29.89 1012 10 16 0.00 0.00
2:53 pm 14:53 Mostly Sunny 59 15 34 1.1 39 39 WNW 9 15 29.89 1012 10 16 0.00 0.00
3:53 pm 15:53 Mostly Sunny 60 15.6 34 1.1 38 38 WNW 9 15 29.89 1012 10 16 0.00 0.00
4:53 pm 16:53 Sunny 54 12.2 33 0.6 45 45 N 3 6 29.91 1013 10 16 0.00 0.00
5:53 pm 17:53 Clear 52 11.1 33 0.6 49 49 N 3 6 29.94 1014 10 16 0.00 0.00
6:53 pm 18:53 Clear 50 10 33 0.6 52 52 NNW 5 7 29.96 1014 10 16 0.00 0.00
7:53 pm 19:53 Clear 46 7.8 33 0.6 61 61 Calm 29.97 1015 10 16 0.00 0.00
8:53 pm 20:53 Clear 42 5.6 34 1.1 73 73 WNW 5 7 29.98 1015 10 16 0.00 0.00
9:53 pm 21:53 Clear 43 6.1 34 1.1 71 71 NNW 5 7 30.00 1016 10 16 0.00 0.00
10:53 pm 22:53 Clear 43 6.1 34 1.1 71 71 NNW 3 6 29.99 1016 10 16 0.00 0.00
11:53 pm 23:53 Clear 39 3.9 32 0 76 76 Calm 30.00 1016 10 16 0.00 0.00

Powered by AerisWeather